Home > Weather > Puerto Vallarta > Past weeks

Flag for Mexico Weather for the Past 2 Weeks in Puerto Vallarta, Jalisco, Mexico

Now
81 °F

Scattered clouds.


Feels Like: 84 °F
Forecast: 65 / 84 °F
Wind: 9 mph from Southwest

Location: Puerto Vallarta / Lic

Current Time: Feb 11, 2016 at 6:08:13 PM

Latest Report: Feb 11, 2016 at 4:45 PM


Visibility: 12 mi

Pressure: 29.91 "Hg

Humidity: 70%

Dew point: 70 °F

Location of Puerto VallartaLocation

Historic Weather in Puerto Vallarta — Graph

°F

Puerto Vallarta Temperature Yesterday

Maximum temperature yesterday: 82 °F (at 2:46 PM)
Minimum temperature yesterday: 64 °F (at 7:46 AM)
Average temperature yesterday: 73 °F

High & Low Weather Summary for the Past Weeks

 TemperatureHumidityPressure
High84 °F (Jan 28, 12:46 PM)100% (Feb 1, 4:56 AM)30.07 "Hg (Feb 1, 4:56 AM)
Low55 °F (Feb 4, 6:55 AM)29% (Jan 28, 12:46 PM)29.84 "Hg (Feb 8, 4:47 PM)
Average71 °F74%29.94 "Hg
* Reported Jan 27 3:47 PM — Feb 11 3:46 PM, Puerto Vallarta, Weather by CustomWeather, © 2016

Note: Actual official high and low records may vary slightly from our data, if they occured in-between our weather recording intervals... More about our weather records

Advertising

Puerto Vallarta Weather History for the Previous 24 Hours

 ConditionsComfort  
Time TempWeatherWind HumidityBarometerVisibility
3:46 PM
Thu, Feb 11
81 °FPartly sunny.10 mph70%29.91 "Hg12 mi
2:46 PM81 °FPassing clouds.9 mph74%29.91 "Hg12 mi
1:46 PM81 °FPassing clouds.10 mph62%29.94 "Hg12 mi
11:46 AM82 °FScattered clouds.5 mph45%30.00 "Hg15 mi
8:51 AM66 °FPartly sunny.5 mph78%30.01 "Hg15 mi
7:45 AM61 °FPartly sunny.2 mph94%30.01 "Hg15 mi
6:46 AM63 °FClear.3 mph88%29.98 "Hg12 mi
5:48 AM63 °FClear.No wind88%29.96 "Hg12 mi
4:47 AM66 °FClear.6 mph78%29.96 "Hg12 mi
3:47 AM64 °FClear.5 mph83%29.96 "Hg12 mi
2:46 AM64 °FClear.7 mph83%29.96 "Hg12 mi
12:46 AM66 °FClear.3 mph83%29.99 "Hg12 mi
11:45 PM
Wed, Feb 10
68 °FClear.2 mph83%29.99 "Hg12 mi
10:50 PM68 °FClear.2 mph83%30.00 "Hg12 mi
9:46 PM70 °FClear.2 mph78%29.99 "Hg12 mi
8:49 PM72 °FClear.No wind78%29.96 "Hg12 mi
7:49 PM73 °FClear.No wind83%29.96 "Hg15 mi
6:51 PM79 °FSunny.5 mph65%29.94 "Hg15 mi
Weather by CustomWeather, © 2016

See weather overviewHow to use our weather pages